Tracking 25648 objects as of 17-May-2022
HD Live streaming from Space Station
objects crossing your sky now

CZ-2C R/B

Track CZ-2C R/B now!
10-day predictions


NORAD ID: 43610
Int'l Code: 2018-068B
Perigee: 655.9 km
Apogee: 782.5 km
Inclination: 98.6 °
Period: 99.0 minutes
Semi major axis: 7090 km
RCS: Unknown
Launch date: September 6, 2008
Source: People's Republic of China (PRC)
Launch site: Taiyaun Space Center, China (TSC)

Note: This is a ROCKET BODY
aabbcc
Your satellite tracking list
Your tracking list is empty




NASA's NSSDC Master Catalog

Two Line Element Set (TLE):
1 43610U 18068B   22136.59319691  .00000440  00000-0  11072-3 0  9996
2 43610  98.6022 261.2943 0089270 226.9294 132.4405 14.54165501195792
Source of the keplerian elements: AFSPC